sat.trackr.live / text

‹ back to catalog

STARLINK-30094

NORAD 56305 · 2023-056V

PAYLOAD ACTIVE UNKNOWN

§ Identity

Operator
Country
US
Launch date
2023-04-19
Launch site
AFETR
Launch vehicle
Mass (kg)
RCS (m²)

Purposes: comms

External: N2YO · Heavens-Above · Gunter

§ Orbital elements

Epoch: 2026-05-25T00:14:27.507840Z

Period
94.27 min
Inclination
43.0059°
Eccentricity
0.0003995
Mean motion
15.27513348 rev/d
Perigee alt
480.5 km
Apogee alt
486.0 km
Semi-major
6,861.4 km
B*
-3.4841e-4
RAAN
137.6854°
Arg perigee
293.9753°
Mean anomaly
66.0680°
Rev number
17,177

§ Raw data

STARLINK-300941 56305U 23056V   26145.01004060 -.00009821  00000+0 -34841-3 0  99982 56305  43.0059 137.6854 0003995 293.9753  66.0680 15.27513348171778

JSON: /api/v1/satellites/56305 · /tle

For live sub-satellite position, see the globe view (requires WebGL).

§ Visibility from observer

Set your observer location to see the next 7 days of passes ≥ 10°. The values pass through the URL so the page stays shareable.

No JS? Fill the form by hand. The geolocation button needs JavaScript.